Weather History for La Crosse, WI

Change the Weather History Date:

Saturday, August 17, 2013

  Actual Average Record
Temperature  
Mean Temperature 70 °F 72 °F  
Max Temperature 84 °F 82 °F 103 °F (1988)
Min Temperature 55 °F 62 °F 48 °F (1981)
Degree Days  
Heating Degree Days 0 0  
Month to date heating degree days 2 0  
Since 1 June heating degree days 58  
Since 1 July heating degree days 14 5  
Cooling Degree Days 5 7  
Month to date cooling degree days 56 130  
Year to date cooling degree days 581 617  
Since 1 June cooling degree days 521  
Growing Degree Days 20 (Base 50)    
Moisture  
Dew Point 55 °F    
Average Humidity 66    
Maximum Humidity 100    
Minimum Humidity 31    
Precipitation  
Precipitation 0.00 in 0.15 in 1.43 in (1881)
Month to date precipitation 0.93 2.45  
Year to date precipitation 27.04 22.12  
Snow  
Snow 0.00 in 0.00 in - ()
Month to date snowfall 0.0 0.0  
Since 1 June snowfall T  
Since 1 July snowfall T 0.0  
Snow Depth 0.00 in    
Sea Level Pressure  
Sea Level Pressure 30.19 in    
Wind  
Wind Speed 5 mph (SE)    
Max Wind Speed 15 mph    
Max Gust Speed 18 mph    
Visibility 8 miles    
Events Fog    
T = Trace of Precipitation, MM = Missing Value Source: NWS Daily Summary

Daily Weather History Graph

Daily Weather History Graph

Search for Another Location

Airport:

Trip Planner

Search our weather history database for the weather conditions in past years. The results will help you decide how hot, cold, wet, or windy it might be!

Date:

Astronomy

Aug. 17, 2013 Rise Set
Actual Time 6:11 AM CDT 8:05 PM CDT
Civil Twilight 5:40 AM CDT 8:36 PM CDT
Nautical Twilight 5:02 AM CDT 9:14 PM CDT
Astronomical Twilight 4:21 AM CDT 9:55 PM CDT
Moon 5:24 PM CDT (8/17) 2:11 AM CDT (8/17)
Length of Visible Light 14h 55m
Length of Day
13h 53m
Waxing Gibbous, 84% of the Moon is Illuminated
Aug 17
Waxing Gibbous
Aug 20
Full
Aug 28
Last Quarter
Sep 5
New
Sep 12
First Quarter

Hourly Weather History & Observations

Time (CDT) Temp. Heat Index Dew Point Humidity Pressure Visibility Wind Dir Wind Speed Gust Speed Precip Events Conditions
12:53 AM 60.1 °F - 55.9 °F 86% 30.18 in 10.0 mi SE 3.5 mph - N/A   Clear
1:53 AM 59.0 °F - 55.0 °F 87% 30.19 in 10.0 mi ESE 3.5 mph - N/A   Clear
2:53 AM 57.9 °F - 55.0 °F 90% 30.19 in 10.0 mi SE 4.6 mph - N/A   Clear
3:53 AM 57.0 °F - 55.0 °F 93% 30.20 in 10.0 mi ESE 4.6 mph - N/A   Clear
4:53 AM 55.9 °F - 54.0 °F 93% 30.20 in 10.0 mi SE 4.6 mph - N/A   Clear
5:53 AM 55.9 °F - 54.0 °F 93% 30.21 in 10.0 mi ESE 4.6 mph - N/A   Clear
6:53 AM 55.9 °F - 54.0 °F 93% 30.22 in 10.0 mi East 3.5 mph - N/A   Clear
7:06 AM 57.2 °F - 55.4 °F 94% 30.24 in 10.0 mi ESE 3.5 mph - N/A   Scattered Clouds
7:15 AM 57.2 °F - 55.4 °F 94% 30.24 in 10.0 mi SE 4.6 mph - N/A   Mostly Cloudy
7:36 AM 57.2 °F - 55.4 °F 94% 30.25 in 2.5 mi SE 4.6 mph - N/A   Mostly Cloudy
7:53 AM 57.9 °F - 57.0 °F 97% 30.24 in 1.0 mi SE 3.5 mph - N/A   Overcast
8:00 AM 57.2 °F - 57.2 °F 100% 30.25 in 0.5 mi SSE 3.5 mph - N/A Fog Fog
8:07 AM 59.0 °F - 57.2 °F 94% 30.25 in 0.2 mi SE 3.5 mph - N/A Fog Fog
8:37 AM 60.8 °F - 59.0 °F 94% 30.25 in 0.8 mi SE 3.5 mph - N/A   Mist
8:43 AM 60.8 °F - 59.0 °F 94% 30.25 in 2.0 mi ESE 3.5 mph - N/A   Overcast
8:53 AM 61.0 °F - 59.0 °F 93% 30.24 in 8.0 mi Variable 3.5 mph - N/A   Mostly Cloudy
9:04 AM 62.6 °F - 57.2 °F 82% 30.24 in 10.0 mi SSE 3.5 mph - N/A   Scattered Clouds
9:53 AM 69.1 °F - 59.0 °F 70% 30.22 in 10.0 mi Variable 3.5 mph - N/A   Clear
10:53 AM 75.0 °F - 57.9 °F 55% 30.22 in 10.0 mi South 3.5 mph - N/A   Clear
11:53 AM 78.1 °F - 55.0 °F 45% 30.20 in 10.0 mi Variable 4.6 mph - N/A   Clear
12:53 PM 82.0 °F 81.2 °F 53.1 °F 37% 30.19 in 10.0 mi SSW 9.2 mph - N/A   Clear
1:53 PM 84.0 °F - 50.0 °F 31% 30.17 in 10.0 mi South 11.5 mph - N/A   Clear
2:53 PM 82.0 °F - 50.0 °F 33% 30.16 in 10.0 mi South 6.9 mph - N/A   Clear
3:53 PM 82.9 °F - 51.1 °F 33% 30.15 in 10.0 mi South 10.4 mph - N/A   Clear
4:53 PM 82.9 °F - 50.0 °F 32% 30.15 in 10.0 mi South 9.2 mph - N/A   Clear
5:53 PM 81.0 °F - 51.1 °F 35% 30.14 in 10.0 mi South 5.8 mph - N/A   Clear
6:53 PM 80.1 °F - 52.0 °F 38% 30.12 in 10.0 mi South 8.1 mph - N/A   Clear
7:53 PM 75.9 °F - 54.0 °F 46% 30.12 in 10.0 mi SSW 4.6 mph - N/A   Clear
8:53 PM 70.0 °F - 59.0 °F 68% 30.13 in 10.0 mi ESE 3.5 mph - N/A   Clear
9:53 PM 68.0 °F - 59.0 °F 73% 30.14 in 10.0 mi Calm Calm - N/A   Clear
10:53 PM 64.9 °F - 57.9 °F 78% 30.14 in 10.0 mi ESE 5.8 mph - N/A   Clear
11:53 PM 64.0 °F - 57.9 °F 80% 30.14 in 10.0 mi ESE 5.8 mph - N/A   Clear